| time (UTC) | temp F | wind direction | speed knots | gust knots | rain 1hr in | rain 24hr in | rain mn in | humidity % | barometer mb |
| 20260505051550 | 42 | 181 | 2.6 | 6.1 | 0.00 | 0.20 | 0.00 | 86 | 1008.0 |
| 20260505050121 | 42 | 206 | 1.7 | 6.1 | 0.00 | 0.20 | 0.00 | 85 | 1007.6 |
| 20260505041550 | 43 | 200 | 1.7 | 5.2 | 0.00 | 0.22 | 0.00 | 84 | 1006.8 |
| 20260505040041 | 43 | 186 | 1.7 | 5.2 | 0.00 | 0.22 | 0.00 | 84 | 1006.6 |
| 20260505034532 | 42 | 172 | 0.9 | 3.5 | 0.00 | 0.26 | 0.00 | 83 | 1006.3 |
| 20260505033029 | 43 | 196 | 0.9 | 3.5 | 0.00 | 0.26 | 0.00 | 82 | 1006.1 |
| 20260505031529 | 43 | 178 | 0.9 | 5.2 | 0.00 | 0.26 | 0.00 | 81 | 1005.8 |
| 20260505030030 | 44 | 195 | 0.9 | 4.3 | 0.00 | 0.26 | 0.00 | 80 | 1005.7 |
| 20260505024525 | 44 | 182 | 2.6 | 5.2 | 0.00 | 0.28 | 0.26 | 79 | 1005.6 |
| 20260505023021 | 45 | 180 | 1.7 | 6.1 | 0.00 | 0.28 | 0.26 | 78 | 1005.5 |
| 20260505021525 | 45 | 180 | 0.9 | 5.2 | 0.00 | 0.28 | 0.26 | 77 | 1005.2 |
| 20260505020020 | 46 | 213 | 2.6 | 6.1 | 0.00 | 0.28 | 0.26 | 75 | 1005.0 |
| 20260505014518 | 47 | 233 | 2.6 | 7.0 | 0.00 | 0.28 | 0.26 | 74 | 1004.9 |
| 20260505013019 | 48 | 179 | 2.6 | 8.7 | 0.00 | 0.28 | 0.26 | 73 | 1004.9 |
| 20260505011524 | 49 | 196 | 2.6 | 7.8 | 0.00 | 0.28 | 0.26 | 71 | 1004.8 |
| 20260505010016 | 51 | 191 | 2.6 | 7.0 | 0.00 | 0.28 | 0.26 | 68 | 1004.7 |
| 20260505004522 | 50 | 262 | 3.5 | 8.7 | 0.00 | 0.31 | 0.26 | 67 | 1004.5 |
| 20260505003012 | 51 | 198 | 0.9 | 6.1 | 0.00 | 0.31 | 0.26 | 64 | 1004.4 |
| 20260505001512 | 51 | 142 | 3.5 | 11.3 | 0.00 | 0.31 | 0.26 | 62 | 1004.4 |
| 20260505000017 | 52 | 232 | 2.6 | 7.8 | 0.00 | 0.31 | 0.26 | 59 | 1004.4 |
| 20260504234509 | 52 | 236 | 1.7 | 7.0 | 0.00 | 0.34 | 0.26 | 57 | 1003.9 |
| 20260504233008 | 53 | 262 | 1.7 | 7.8 | 0.00 | 0.34 | 0.26 | 55 | 1004.0 |
| 20260504231505 | 53 | 218 | 0.9 | 6.1 | 0.00 | 0.34 | 0.26 | 53 | 1003.6 |
| 20260504230011 | 54 | 252 | 1.7 | 9.6 | 0.00 | 0.52 | 0.26 | 50 | 1003.2 |
| 20260504224502 | 54 | 234 | 2.6 | 9.6 | 0.00 | 0.52 | 0.26 | 50 | 1003.1 |
| 20260504223001 | 54 | 220 | 4.3 | 8.7 | 0.00 | 0.52 | 0.26 | 49 | 1002.7 |
| 20260504221601 | 54 | 198 | 5.2 | 9.6 | 0.00 | 0.52 | 0.26 | 51 | 1002.7 |
| 20260504214601 | 55 | 259 | 3.5 | 13.0 | 0.01 | 0.65 | 0.26 | 49 | 1002.3 |
| 20260504213130 | 56 | 241 | 4.3 | 13.0 | 0.01 | 0.65 | 0.26 | 49 | 1002.3 |
| 20260504213043 | 56 | 225 | 3.5 | 13.0 | 0.01 | 0.65 | 0.26 | 49 | 1002.5 |
| 20260504211603 | 56 | 317 | 2.6 | 16.5 | 0.01 | 0.65 | 0.26 | 51 | 1002.1 |
| 20260504210052 | 56 | 301 | 5.2 | 14.8 | 0.00 | 0.64 | 0.25 | 51 | 1002.1 |
| 20260504204554 | 57 | 222 | 4.3 | 14.8 | 0.00 | 0.74 | 0.25 | 52 | 1001.9 |
| 20260504203102 | 56 | 225 | 5.2 | 15.6 | 0.00 | 0.74 | 0.25 | 52 | 1001.7 |
| 20260504201545 | 56 | 280 | 2.6 | 21.7 | 0.00 | 0.74 | 0.25 | 55 | 1001.4 |
| 20260504200044 | 56 | 231 | 7.8 | 19.1 | 0.00 | 0.74 | 0.25 | 56 | 1001.0 |
| 20260504194555 | 56 | 215 | 6.1 | 19.1 | 0.00 | 0.78 | 0.25 | 59 | 1000.8 |
| 20260504193050 | 56 | 329 | 4.3 | 13.0 | 0.00 | 0.78 | 0.25 | 58 | 1000.4 |
| 20260504191535 | 56 | 240 | 5.2 | 15.6 | 0.00 | 0.78 | 0.25 | 59 | 1000.4 |
| 20260504190031 | 56 | 317 | 6.1 | 16.5 | 0.00 | 0.78 | 0.25 | 61 | 1000.4 |
| 20260504184529 | 55 | 257 | 4.3 | 15.6 | 0.00 | 0.79 | 0.25 | 62 | 1000.1 |
| 20260504183027 | 55 | 298 | 4.3 | 17.4 | 0.00 | 0.79 | 0.25 | 65 | 1000.0 |
| 20260504181523 | 54 | 218 | 5.2 | 16.5 | 0.00 | 0.79 | 0.25 | 64 | 999.7 |
| 20260504180021 | 54 | 261 | 8.7 | 18.2 | 0.00 | 0.79 | 0.25 | 64 | 999.9 |
| 20260504174518 | 53 | 248 | 7.8 | 19.1 | 0.00 | 0.79 | 0.25 | 68 | 999.3 |
| 20260504173024 | 52 | 259 | 7.0 | 18.2 | 0.00 | 0.79 | 0.25 | 70 | 999.3 |
| 20260504171518 | 52 | 267 | 6.1 | 19.1 | 0.00 | 0.79 | 0.25 | 71 | 999.0 |
| 20260504110116 | 37 | 350 | 10.4 | 29.5 | 0.05 | 0.73 | 0.20 | 90 | 989.0 |
| 20260504081517 | 38 | 180 | 7.0 | 20.0 | 0.01 | 0.65 | 0.12 | 90 | 980.7 |